Location: Azalea Creek
(37.1280°N, 119.2623°W)
Time: 09:59:41
(UTC+00:00)

H-2A R/B - Pass Details

Date: 17 February 2020
Orbit: 733 x 838 km, 98.2° (Epoch: 08 April)

Event Time Altitude Azimuth Distance (km) Brightness Sun altitude
Exits shadow 03:31:20 44° 141° (SE) 1,108 2.5 -23.2°
Maximum altitude 03:32:58 68° 75° (ENE) 871 2.0 -23.6°
Drops below altitude 10° 03:38:19 10° 353° (N) 2,431 4.7 -24.6°
Sets 03:40:43 0° 351° (N) 3,378 5.5 -25.1°
